Weather History for Prescott, AZ

Change the Weather History Date:

Sunday, October 3, 2010

  Actual Average Record
Temperature  
Mean Temperature 66 °F 61 °F  
Max Temperature 80 °F 76 °F 90 °F (1980)
Min Temperature 52 °F 46 °F 35 °F (2002)
Degree Days  
Heating Degree Days 0    
Month to date heating degree days  
Since 1 July heating degree days  
Cooling Degree Days 1    
Month to date cooling degree days  
Year to date cooling degree days  
Growing Degree Days 16 (Base 50)    
Moisture  
Dew Point 50 °F    
Average Humidity 61    
Maximum Humidity 93    
Minimum Humidity 29    
Precipitation  
Precipitation 0.16 in 0.04 in 0.85 in (1968)
Month to date precipitation 0.11  
Year to date precipitation 11.28  
Sea Level Pressure  
Sea Level Pressure 30.02 in    
Wind  
Wind Speed 5 mph (SSW)    
Max Wind Speed 17 mph    
Max Gust Speed 38 mph    
Visibility 10 miles    
Events Rain , Thunderstorm    
T = Trace of Precipitation, MM = Missing Value Source: NWS Daily Summary

Daily Weather History Graph

Daily Weather History Graph

Search for Another Location

Airport:

Trip Planner

Search our weather history database for the weather conditions in past years. The results will help you decide how hot, cold, wet, or windy it might be!

Date:

Astronomy

Oct. 03, 2010 Rise Set
Actual Time 6:25 AM MST 6:10 PM MST
Civil Twilight 6:00 AM MST 6:36 PM MST
Nautical Twilight 5:31 AM MST 7:05 PM MST
Astronomical Twilight 5:02 AM MST 7:34 PM MST
Moon 1:38 AM MST (10/3) 3:27 PM MST (10/3)
Length of Visible Light 12h 35m
Length of Day
11h 45m
Waning Crescent, 22% of the Moon is Illuminated
Oct 3
Waning Crescent
Oct 7
New
Oct 14
First Quarter
Oct 22
Full
Oct 30
Last Quarter

Hourly Weather History & Observations

Time (MST) Temp. Dew Point Humidity Pressure Visibility Wind Dir Wind Speed Gust Speed Precip Events Conditions
12:09 AM 60.8 °F 55.4 °F 82% 30.27 in 10.0 mi East 4.6 mph - N/A   Mostly Cloudy
12:53 AM 60.1 °F 55.9 °F 86% 30.05 in 10.0 mi ESE 3.5 mph - N/A   Scattered Clouds
1:53 AM 60.1 °F 55.9 °F 86% 30.02 in 10.0 mi Calm Calm - N/A   Clear
2:53 AM 57.9 °F 55.0 °F 90% 30.01 in 10.0 mi Calm Calm - N/A   Clear
3:53 AM 54.0 °F 52.0 °F 93% 30.02 in 10.0 mi NNW 4.6 mph - N/A   Clear
4:53 AM 54.0 °F 52.0 °F 93% 30.01 in 10.0 mi SSE 3.5 mph - N/A   Clear
5:53 AM 52.0 °F 50.0 °F 93% 30.03 in 10.0 mi SSW 3.5 mph - N/A   Clear
6:53 AM 52.0 °F 48.9 °F 89% 30.05 in 10.0 mi South 4.6 mph - N/A   Clear
7:53 AM 57.9 °F 52.0 °F 81% 30.05 in 10.0 mi Calm Calm - N/A   Clear
8:53 AM 64.0 °F 53.1 °F 67% 30.04 in 10.0 mi Calm Calm - N/A   Clear
9:53 AM 70.0 °F 53.1 °F 55% 30.03 in 10.0 mi Calm Calm - N/A   Clear
10:53 AM 73.0 °F 52.0 °F 48% 30.04 in 10.0 mi Variable 3.5 mph - N/A   Scattered Clouds
11:53 AM 75.9 °F 50.0 °F 40% 30.00 in 10.0 mi SSW 4.6 mph - N/A   Scattered Clouds
12:53 PM 78.1 °F 46.9 °F 33% 29.96 in 10.0 mi SW 10.4 mph - N/A   Mostly Cloudy
1:08 PM 78.8 °F 46.4 °F 32% 30.18 in 10.0 mi SSW 17.3 mph - N/A Thunderstorm Scattered Clouds
1:53 PM 80.1 °F 45.0 °F 29% 29.92 in 10.0 mi West 16.1 mph 20.7 mph N/A   Mostly Cloudy
2:53 PM 77.0 °F 46.0 °F 33% 29.94 in 10.0 mi WSW 13.8 mph 23.0 mph N/A   Mostly Cloudy
3:53 PM 73.0 °F 50.0 °F 44% 29.95 in 10.0 mi SSW 13.8 mph 35.7 mph 0.02 in   Mostly Cloudy
4:01 PM 71.6 °F 44.6 °F 38% 30.14 in 10.0 mi West 10.4 mph 38.0 mph 0.07 in Rain Heavy Rain
4:10 PM 73.4 °F 46.4 °F 38% 30.13 in 10.0 mi Variable 3.5 mph - 0.11 in Rain Rain
4:53 PM 71.1 °F 48.9 °F 45% 29.95 in 10.0 mi West 6.9 mph - 0.14 in   Mostly Cloudy
5:53 PM 70.0 °F 48.9 °F 47% 29.96 in 10.0 mi West 5.8 mph - N/A   Mostly Cloudy
6:53 PM 66.0 °F 50.0 °F 56% 29.98 in 10.0 mi Calm Calm - N/A   Partly Cloudy
7:53 PM 63.0 °F 50.0 °F 63% 29.99 in 10.0 mi SSW 4.6 mph - N/A   Clear
8:53 PM 60.1 °F 48.9 °F 67% 30.00 in 10.0 mi South 6.9 mph - N/A   Clear
9:53 PM 60.1 °F 46.9 °F 62% 29.98 in 10.0 mi South 8.1 mph - N/A   Clear
10:53 PM 61.0 °F 46.9 °F 60% 29.97 in 10.0 mi SSW 8.1 mph - N/A   Clear
11:53 PM 59.0 °F 46.9 °F 64% 29.96 in 10.0 mi SSW 6.9 mph - N/A   Clear